Location: El Manguito
(10.2358°N, 67.3634°W)
Time: 21:52:34
(UTC+00:00)

Aurora 2 Rocket - Pass Details

Date: 13 December 2024
Orbit: 386 x 1590 km, 25.0° (Epoch: 12 January)

Event Time Altitude Azimuth Distance (km) Brightness Sun altitude
Exits shadow 08:03:07 44° 78° (ENE) 1,324 4.4 -36.2°
Drops below altitude 10° 08:07:03 10° 100° (E) 2,440 6.4 -35.3°
Sets 08:09:14 0° 104° (ESE) 3,206 7.2 -34.8°
